Weather History for KGRF - January, 2014

Change the Weather History Date:

Thursday, January 16, 2014

  Actual Average Record
Temperature  
Mean Temperature 40 °F -  
Max Temperature 42 °F 45 °F 55 °F (2011)
Min Temperature 39 °F 34 °F 21 °F (2012)
Degree Days  
Heating Degree Days 24    
Moisture  
Dew Point 40 °F    
Average Humidity 99    
Maximum Humidity 100    
Minimum Humidity 93    
Precipitation  
Precipitation 0.00 in - - ()
Sea Level Pressure  
Sea Level Pressure 30.45 in    
Wind  
Wind Speed 4 mph (NNE)    
Max Wind Speed 9 mph    
Max Gust Speed -    
Visibility 2 miles    
Events Fog    
Averages and records for this station are not official NWS values.
T = Trace of Precipitation, MM = Missing Value Source: NWS Daily Summary

Daily Weather History Graph

Daily Weather History Graph

Search for Another Location

Airport or City:

Trip Planner

Search our weather history database for the weather conditions in past years. The results will help you decide how hot, cold, wet, or windy it might be!

Date:

Astronomy

Jan. 16, 2014 Rise Set
Actual Time 7:51 AM PST 4:49 PM PST
Civil Twilight 7:16 AM PST 5:23 PM PST
Nautical Twilight 6:39 AM PST 6:01 PM PST
Astronomical Twilight 6:02 AM PST 6:38 PM PST
Moon 5:53 PM PST (1/16) 7:42 AM PST (1/16)
Length of Visible Light 10h 06m
Length of Day
8h 58m
Full, 100% of the Moon is Illuminated
Jan 16
Full
Jan 23
Last Quarter
Jan 30
New
Feb 6
First Quarter
Feb 14
Full

Hourly Weather History & Observations

Time (PST) Temp. Windchill Dew Point Humidity Pressure Visibility Wind Dir Wind Speed Gust Speed Precip Events Conditions
12:23 AM 41.0 °F 39.0 °F 41.0 °F 100% 30.49 in 7.0 mi NNE 3.5 mph - N/A   Overcast
12:58 AM 41.9 °F 40.0 °F 41.7 °F 99% 30.51 in 3.0 mi NNE 3.5 mph - N/A   Overcast
1:08 AM 42.8 °F 41.1 °F 41.0 °F 93% 30.49 in 3.0 mi NNE 3.5 mph - N/A   Overcast
1:23 AM 42.8 °F 41.1 °F 41.0 °F 93% 30.49 in 2.5 mi NE 3.5 mph - N/A   Overcast
1:28 AM 42.8 °F 41.1 °F 41.0 °F 93% 30.49 in 1.8 mi NNE 3.5 mph - N/A   Overcast
1:38 AM 42.8 °F 40.1 °F 41.0 °F 93% 30.49 in 2.0 mi Variable 4.6 mph - N/A   Overcast
1:43 AM 42.8 °F 41.1 °F 41.0 °F 93% 30.49 in 3.0 mi NNE 3.5 mph - N/A   Overcast
1:48 AM 42.8 °F - 41.0 °F 93% 30.49 in 3.0 mi NNE 2.3 mph - N/A   Overcast
1:53 AM 42.8 °F - 41.0 °F 93% 30.49 in 2.5 mi NE 2.3 mph - N/A   Overcast
1:58 AM 41.9 °F - 41.7 °F 99% 30.51 in 2.5 mi NE 2.3 mph - N/A   Overcast
2:03 AM 42.8 °F - 41.0 °F 93% 30.49 in 2.0 mi NE 2.3 mph - N/A   Overcast
2:08 AM 42.8 °F - 41.0 °F 93% 30.49 in 2.5 mi NNE 2.3 mph - N/A   Overcast
2:13 AM 42.8 °F - 41.0 °F 93% 30.49 in 3.0 mi North 2.3 mph - N/A   Overcast
2:58 AM 42.1 °F 40.2 °F 41.9 °F 99% 30.51 in 5.0 mi NNE 3.5 mph - N/A   Overcast
3:33 AM 41.0 °F 37.1 °F 41.0 °F 100% 30.48 in 3.0 mi North 5.8 mph - N/A   Overcast
3:43 AM 41.0 °F 38.0 °F 41.0 °F 100% 30.48 in 3.0 mi NNE 4.6 mph - N/A   Overcast
3:58 AM 41.5 °F 37.8 °F 41.4 °F 99% 30.50 in 2.5 mi NNE 5.8 mph - N/A   Overcast
4:03 AM 41.0 °F 36.4 °F 41.0 °F 100% 30.48 in 2.0 mi NNE 6.9 mph - N/A   Overcast
4:08 AM 41.0 °F 39.0 °F 41.0 °F 100% 30.48 in 1.8 mi NNE 3.5 mph - N/A   Overcast
4:23 AM 41.0 °F 39.0 °F 41.0 °F 100% 30.48 in 2.0 mi North 3.5 mph - N/A   Overcast
4:28 AM 41.0 °F 37.1 °F 41.0 °F 100% 30.48 in 2.0 mi North 5.8 mph - N/A   Overcast
4:33 AM 41.0 °F 37.1 °F 41.0 °F 100% 30.48 in 1.5 mi North 5.8 mph - N/A   Overcast
4:38 AM 41.0 °F 38.0 °F 41.0 °F 100% 30.48 in 1.2 mi North 4.6 mph - N/A   Overcast
4:43 AM 41.0 °F 36.4 °F 41.0 °F 100% 30.48 in 1.5 mi North 6.9 mph - N/A   Overcast
4:48 AM 41.0 °F 38.0 °F 41.0 °F 100% 30.48 in 1.5 mi North 4.6 mph - N/A   Overcast
4:53 AM 41.0 °F 39.0 °F 41.0 °F 100% 30.48 in 1.2 mi North 3.5 mph - N/A   Overcast
4:58 AM 40.8 °F 37.8 °F 40.6 °F 99% 30.50 in 1.2 mi North 4.6 mph - N/A   Overcast
5:08 AM 41.0 °F 37.1 °F 41.0 °F 100% 30.49 in 1.8 mi NNE 5.8 mph - N/A   Overcast
5:18 AM 41.0 °F 37.1 °F 41.0 °F 100% 30.49 in 1.5 mi North 5.8 mph - N/A   Overcast
5:23 AM 41.0 °F 37.1 °F 41.0 °F 100% 30.49 in 1.2 mi North 5.8 mph - N/A   Overcast
5:28 AM 41.0 °F 35.8 °F 41.0 °F 100% 30.49 in 1.0 mi North 8.1 mph - N/A   Overcast
5:38 AM 41.0 °F 37.1 °F 41.0 °F 100% 30.49 in 0.8 mi NNE 5.8 mph - N/A   Overcast
5:43 AM 41.0 °F 38.0 °F 41.0 °F 100% 30.48 in 0.5 mi NNE 4.6 mph - N/A Fog Fog
5:58 AM 40.3 °F 37.1 °F 40.1 °F 99% 30.50 in 0.5 mi NE 4.6 mph - N/A Fog Fog
6:58 AM 40.1 °F 36.9 °F 39.7 °F 99% 30.50 in 0.5 mi NE 4.6 mph - N/A Fog Fog
7:08 AM 39.2 °F 35.9 °F 39.2 °F 100% 30.48 in 0.5 mi NE 4.6 mph - N/A Fog Fog
7:13 AM 39.2 °F 35.9 °F 39.2 °F 100% 30.48 in 0.8 mi NE 4.6 mph - N/A   Mist
7:43 AM 39.2 °F 37.0 °F 39.2 °F 100% 30.48 in 0.5 mi NNE 3.5 mph - N/A Fog Fog
7:48 AM 39.2 °F 34.2 °F 39.2 °F 100% 30.48 in 0.2 mi NNE 6.9 mph - N/A Fog Fog
7:58 AM 39.7 °F 34.9 °F 39.4 °F 99% 30.50 in 0.2 mi North 6.9 mph - N/A Fog Fog
8:03 AM 39.2 °F 35.9 °F 39.2 °F 100% 30.48 in 0.2 mi NNE 4.6 mph - N/A Fog Fog
8:08 AM 39.2 °F 37.0 °F 39.2 °F 100% 30.48 in 0.2 mi NE 3.5 mph - N/A Fog Fog
8:58 AM 39.6 °F 37.4 °F 39.4 °F 99% 30.50 in 0.2 mi NE 3.5 mph - N/A Fog Fog
9:08 AM 39.2 °F 35.9 °F 39.2 °F 100% 30.48 in 0.2 mi NE 4.6 mph - N/A Fog Fog
9:28 AM 39.2 °F - 39.2 °F 100% 30.49 in 0.5 mi NE 2.3 mph - N/A Fog Fog
9:38 AM 39.2 °F - 39.2 °F 100% 30.49 in 0.5 mi NE 2.3 mph - N/A Fog Fog
9:43 AM 39.2 °F - 39.2 °F 100% 30.49 in 0.5 mi NE 2.3 mph - N/A Fog Fog
9:48 AM 39.2 °F 37.0 °F 39.2 °F 100% 30.48 in 0.5 mi NNE 3.5 mph - N/A Fog Fog
9:58 AM 40.1 °F 38.0 °F 39.9 °F 99% 30.50 in 0.5 mi NNE 3.5 mph - N/A Fog Fog
10:08 AM 41.0 °F 38.0 °F 39.2 °F 93% 30.48 in 0.8 mi Variable 4.6 mph - N/A   Overcast
10:13 AM 41.0 °F 39.0 °F 39.2 °F 93% 30.48 in 0.8 mi NNE 3.5 mph - N/A   Overcast
10:28 AM 41.0 °F 38.0 °F 41.0 °F 100% 30.48 in 1.0 mi NNE 4.6 mph - N/A   Overcast
10:38 AM 41.0 °F 38.0 °F 41.0 °F 100% 30.48 in 0.8 mi North 4.6 mph - N/A   Overcast
10:43 AM 41.0 °F 38.0 °F 41.0 °F 100% 30.48 in 1.2 mi North 4.6 mph - N/A   Overcast
10:58 AM 40.8 °F 36.9 °F 40.8 °F 100% 30.50 in 0.5 mi NE 5.8 mph - N/A Fog Fog
11:13 AM 41.0 °F 35.2 °F 41.0 °F 100% 30.47 in 0.8 mi NNE 9.2 mph - N/A   Overcast
11:58 AM 41.0 °F 39.0 °F 41.0 °F 100% 30.48 in 0.8 mi North 3.5 mph - N/A   Overcast
12:08 PM 41.0 °F 39.0 °F 41.0 °F 100% 30.46 in 0.5 mi NE 3.5 mph - N/A Fog Fog
12:53 PM 41.0 °F 35.8 °F 41.0 °F 100% 30.44 in 0.8 mi NE 8.1 mph - N/A   Overcast
12:58 PM 41.0 °F 37.1 °F 41.0 °F 100% 30.46 in 0.8 mi North 5.8 mph - N/A   Overcast
1:58 PM 40.6 °F 36.7 °F 40.6 °F 100% 30.43 in 0.8 mi ENE 5.8 mph - N/A   Overcast
2:57 PM 41.0 °F 38.0 °F 41.0 °F 100% 30.43 in 0.8 mi NE 4.6 mph - N/A   Overcast
3:58 PM 41.0 °F 38.0 °F 41.0 °F 100% 30.43 in 0.6 mi NE 4.6 mph - N/A Fog Fog
4:55 PM 41.0 °F 37.1 °F 39.2 °F 93% 30.42 in 0.2 mi ENE 5.8 mph - N/A Fog Fog
5:57 PM 39.2 °F 37.0 °F 39.2 °F 100% 30.41 in 0.5 mi NE 3.5 mph - N/A Fog Fog
6:59 PM 41.0 °F 37.1 °F 41.0 °F 100% 30.39 in 0.8 mi North 5.8 mph - N/A   Overcast
7:27 PM 41.0 °F 39.0 °F 41.0 °F 100% 30.37 in 3.0 mi NE 3.5 mph - N/A   Overcast
7:58 PM 40.5 °F 36.5 °F 40.1 °F 99% 30.39 in 5.0 mi North 5.8 mph - N/A   Overcast
8:13 PM 41.0 °F 39.0 °F 41.0 °F 100% 30.37 in 4.0 mi NNE 3.5 mph - N/A   Overcast
8:58 PM 40.5 °F 37.3 °F 40.3 °F 99% 30.39 in 3.0 mi NNE 4.6 mph - N/A   Overcast
9:03 PM 41.0 °F 38.0 °F 41.0 °F 100% 30.36 in 2.0 mi ENE 4.6 mph - N/A   Overcast
9:08 PM 41.0 °F 39.0 °F 41.0 °F 100% 30.36 in 1.8 mi NE 3.5 mph - N/A   Overcast
9:23 PM 41.0 °F 39.0 °F 39.2 °F 93% 30.36 in 1.5 mi NNE 3.5 mph - N/A   Overcast
9:33 PM 41.0 °F 38.0 °F 39.2 °F 93% 30.36 in 2.0 mi NNE 4.6 mph - N/A   Overcast
9:48 PM 41.0 °F 37.1 °F 39.2 °F 93% 30.36 in 1.5 mi NE 5.8 mph - N/A   Overcast
9:58 PM 40.1 °F 36.1 °F 39.7 °F 99% 30.38 in 1.8 mi NNE 5.8 mph - N/A   Overcast
10:08 PM 39.2 °F 35.0 °F 39.2 °F 100% 30.36 in 1.5 mi NE 5.8 mph - N/A   Overcast
10:13 PM 39.2 °F 35.0 °F 39.2 °F 100% 30.36 in 1.2 mi NNE 5.8 mph - N/A   Overcast
10:33 PM 39.2 °F 35.0 °F 39.2 °F 100% 30.36 in 1.0 mi NE 5.8 mph - N/A   Overcast
10:43 PM 39.2 °F 35.0 °F 39.2 °F 100% 30.36 in 0.8 mi NE 5.8 mph - N/A   Overcast
10:48 PM 39.2 °F 35.9 °F 39.2 °F 100% 30.36 in 0.8 mi NE 4.6 mph - N/A   Mist
10:58 PM 39.4 °F 36.1 °F 39.0 °F 99% 30.38 in 0.8 mi NE 4.6 mph - N/A   Mist
11:03 PM 39.2 °F - 39.2 °F 100% 30.36 in 0.5 mi NE 2.3 mph - N/A Fog Fog
11:28 PM 39.2 °F 35.9 °F 39.2 °F 100% 30.36 in 0.5 mi ENE 4.6 mph - N/A Fog Fog
11:58 PM 39.0 °F 35.7 °F 38.8 °F 99% 30.37 in 0.5 mi NE 4.6 mph - N/A Fog Fog